Home > Weather > North Bay > Past weeks

Flag for Canada Weather for the Past 2 Weeks in North Bay, Ontario, Canada

Now
-11 °F

Light snow. Scattered clouds.


Feels Like: -31 °F
Forecast: -9 / 0 °F
Wind: 12 mph from Northwest

Location: North Bay

Current Time: Feb 11, 2016 at 11:17:13 AM

Latest Report: Feb 11, 2016 at 10:00 AM


Visibility: 12 mi

Pressure: 30.07 "Hg

Humidity: 63%

Dew point: -20 °F

Location of North BayLocation

Historic Weather in North Bay — Graph

°F

North Bay Temperature Yesterday

Maximum temperature yesterday: 18 °F (at 12:00 AM)
Minimum temperature yesterday: -4 °F (at 10:00 PM)
Average temperature yesterday: 5 °F

High & Low Weather Summary for the Past Weeks

 TemperatureHumidityPressure
High39 °F (Feb 3, 2:00 PM)100% (Jan 28, 9:00 AM)30.38 "Hg (Jan 28, 9:00 AM)
Low-15 °F (Feb 11, 8:00 AM)63% (Feb 11, 9:00 AM)29.40 "Hg (Feb 1, 12:04 AM)
Average18 °F89%29.83 "Hg
* Reported Jan 27 10:00 AM — Feb 11 10:00 AM, North Bay, Weather by CustomWeather, © 2016

Note: Actual official high and low records may vary slightly from our data, if they occured in-between our weather recording intervals... More about our weather records

Advertising

North Bay Weather History for the Previous 24 Hours

 ConditionsComfort  
Time TempWeatherWind HumidityBarometerVisibility
10:00 AM
Thu, Feb 11
-11 °FLight snow. Scattered clouds.12 mph63%30.07 "Hg12 mi
9:00 AM-11 °FLight snow. Broken clouds.14 mph63%30.05 "Hg10 mi
8:00 AM-15 °FLight snow. Broken clouds.8 mph76%30.04 "Hg10 mi
7:00 AM-13 °FLight snow. Passing clouds.7 mph76%30.01 "Hg10 mi
6:00 AM-11 °FLight snow. Overcast.10 mph70%29.99 "Hg9 mi
5:00 AM-11 °FLight snow. Overcast.12 mph70%29.96 "Hg6 mi
4:58 AM-11 °FLight snow. Overcast.12 mph76%29.96 "Hg6 mi
4:00 AM-9 °FLight snow. Overcast.16 mph70%29.94 "Hg5 mi
3:56 AM-9 °FLight snow. Mostly cloudy.15 mph70%29.94 "Hg5 mi
3:00 AM-8 °FLight snow. Mostly cloudy.16 mph70%29.92 "Hg3 mi
2:00 AM-6 °FLight snow. Overcast.12 mph77%29.90 "Hg1 mi
1:55 AM-6 °FLight snow. Overcast.8 mph77%29.90 "Hg2 mi
1:00 AM-6 °FLight snow. Overcast.8 mph77%29.89 "Hg3 mi
12:00 AM-6 °FLight snow. Mostly cloudy.10 mph77%29.88 "Hg8 mi
11:00 PM
Wed, Feb 10
-4 °FLight snow. Overcast.9 mph71%29.88 "Hg4 mi
10:00 PM-4 °FLight snow. Overcast.10 mph71%29.88 "Hg6 mi
9:00 PM-2 °FLight snow. Overcast.13 mph71%29.86 "Hg6 mi
8:00 PM-2 °FLight snow. Overcast.9 mph77%29.85 "Hg6 mi
7:00 PM0 °FLight snow. Mostly cloudy.8 mph78%29.83 "Hg6 mi
6:00 PM1 °FLight snow. Passing clouds.7 mph78%29.81 "Hg6 mi
5:00 PM3 °FLight snow. Partly sunny.7 mph72%29.78 "Hg6 mi
4:00 PM5 °FLight snow. Overcast.8 mph72%29.74 "Hg6 mi
3:00 PM5 °FLight snow. Partly sunny.10 mph72%29.71 "Hg15 mi
2:00 PM5 °FLight snow. Partly sunny.8 mph72%29.71 "Hg15 mi
1:00 PM5 °FLight snow. Broken clouds.8 mph72%29.70 "Hg15 mi
12:00 PM3 °FLight snow. Broken clouds.9 mph72%29.71 "Hg10 mi
11:00 AM3 °FLight snow. Broken clouds.12 mph66%29.71 "Hg10 mi
Weather by CustomWeather, © 2016

See weather overviewHow to use our weather pages